Hourly Data Report for July 09, 2021

DRYDEN REGIONAL
ONTARIO
Current Station Operator: NAVCAN

49°49'39.000" N
92°44'39.000" W
412.70 m
6032125
71527
YHD

Download Data

Hourly Data (July 2021)
Hourly Data Report for July 9, 2021
TIME
LST
Temp Definition
°C
Dew Point Definition
°C
Rel Hum Definition
%
Precip. Amount Definition
mm

Wind Dir Definition
10's deg

Wind Spd Definition
km/h
Visibility Definition
km
Stn Press Definition
kPa
Hmdx Definition


Wind Chill Definition


Weather Definition


00:00 15.6 9.3 66 0.0 27 8 16.1 96.71     LegendNANA
01:00 14.4 9.3 71 0.0 26 8 16.1 96.74     LegendNANA
02:00 13.4 9.1 75 0.0 26 8 16.1 96.75     LegendNANA
03:00 13.5 9.6 77 0.0 27 8 16.1 96.77     LegendNANA
04:00 13.5 10.0 79 0.0 27 8 16.1 96.78     LegendNANA
05:00 12.7 10.5 86 0.0 21 5 16.1 96.80     LegendNANA
06:00 15.4 11.0 75 0.0 19 5 16.1 96.81     LegendNANA
07:00 17.9 11.5 66 0.0 23 5 16.1 96.83     LegendNANA
08:00 20.9 11.2 53 0.0 26 5 16.1 96.88     LegendNANA
09:00 21.6 10.2 48 0.0 30 8 16.1 96.88     LegendNANA
10:00 22.3 9.2 43 0.0 16 8 16.1 96.89     LegendNANA
11:00 22.8 9.6 43 0.0 30 15 16.1 96.89     LegendNANA
12:00 23.4 9.3 40 0.0 24 8 16.1 96.90     LegendNANA
13:00 24.5 7.9 34 0.0 21 11 16.1 96.87 25   LegendNANA
14:00 24.5 8.7 36 0.0 31 9 16.1 96.85 25   LegendNANA
15:00 24.7 10.3 40 0.0 LegendMM 8 16.1 96.82 26   LegendNANA
16:00 25.0 9.4 37 0.0 35 5 16.1 96.78 26   LegendNANA
17:00 25.3 10.4 39 0.0 LegendMM 13 16.1 96.75 27   LegendNANA
18:00 25.2 10.3 39 0.0 20 8 16.1 96.73 27   LegendNANA
19:00 24.2 11.0 43 0.0 20 8 16.1 96.74 26   LegendNANA
20:00 22.6 11.5 49 0.0 19 9 16.1 96.74 25   LegendNANA
21:00 21.3 12.0 55 0.0 21 9 16.1 96.79     LegendNANA
22:00 20.6 11.6 56 0.0 21 9 16.1 96.80     LegendNANA
23:00 19.7 11.8 60 0.0 21 9 16.1 96.79     LegendNANA

Notes on Data Quality.

Legend

  • E = Estimated
  • M = Missing
  • NA = Not Available*
  • [empty] = Indicates an unobserved value
Date modified: